OneWeb SL0243

operational
NORAD ID: 48774 Int'l Des: 2021-045 Owner: ONEWEBN Country: UK Constellation: oneweb
LEOCIRCULARPOLARONEWEB_TYPE

关于 OneWeb SL0243

正在加载描述...

实时位置

正在加载3D地球...

即将过境

高度历史

Altitude vs Time

uPlot chart will show altitude changes over time

两行轨道根数

1 48774U 21045H 26037.09419140 -.00000074 00000-0 -22968-3 0 9991
2 48774 87.8985 285.3960 0001155 74.6787 285.4471 13.15549321227120
Epoch: Feb 6, 2026 • Age: 10 hours

当前状态

高度 1213.9 km
速度 7.25 km/s
星下点 74.96°N, 142.09°E
发射日期 May 28, 2021
运行时间 4.6 years
类型 internet

技术详情

分类 Payload
质量 148.00 kg
干质量 140.00 kg
总质量 148.00 kg
长度 1.30 m
直径 1.00 m
跨度 5.00 m
形状 Trapezoid+2 pan
制造商 ONEWUS
平台类型 ARROW
阶段状态 In Orbit
所有者/国家 ONEWEBN/UK

大型星座

Loading constellations...